Regional Weather Roundup
Issued by NWS

Home | Current Version | Previous Version | Text Only | Print | Product List | Glossary On
Versions: 1 2 3 4 5 6 7 8 9 10 11 12 13 14 15 16 17 18 19 20 21 22 23 24 25 26 27
000
ASUS45 KPSR 231810
RWRAZ

ARIZONA HOURLY REGIONAL WEATHER ROUNDUP
NATIONAL WEATHER SERVICE PHOENIX AZ
1100 AM MST WED AUG 23 2017

NOTE: FAIR INDICATES FEW OR NO CLOUDS BELOW 12,000 FEET WITH NO
SIGNIFICANT WEATHER AND/OR OBSTRUCTIONS TO VISIBILITY.

AZZ001>003-036-231900-
NORTHWEST ARIZONA

CITY           SKY/WX    TMP DP  RH WIND       PRES   REMARKS
BULLHEAD CITY  SUNNY     99  50  19 SW5       29.87F
KINGMAN        MOSUNNY   92  45  19 SE10      30.08S
6HR MIN TEMP:  65; 6HR MAX TEMP:  94;

$$

AZZ004>008-015-016-018-231900-
NORTH CENTRAL ARIZONA

CITY           SKY/WX    TMP DP  RH WIND       PRES   REMARKS
GRAND CANYON   MOSUNNY   79  42  26 S14G28    30.34S
6HR MIN TEMP:  48; 6HR MAX TEMP:  79;

WILLIAMS       MOSUNNY   77  45  31 VRB5      30.34S
PRESCOTT       MOSUNNY   86  45  23 N5        30.21F
6HR MIN TEMP:  59; 6HR MAX TEMP:  86;

FLAGSTAFF      MOSUNNY   76  44  32 W7        30.37S
6HR MIN TEMP:  48; 6HR MAX TEMP:  78;

PAYSON           N/A     86  46  25 S9        30.23F
PAGE           SUNNY     87  47  24 VRB6      30.15F
6HR MIN TEMP:  71; 6HR MAX TEMP:  87;

$$

AZZ009>014-017-231900-
NORTHEAST ARIZONA

CITY           SKY/WX    TMP DP  RH WIND       PRES   REMARKS
WINSLOW        SUNNY     87  41  19 E6        30.21F
6HR MIN TEMP:  61; 6HR MAX TEMP:  87;

SAINT JOHNS    PTSUNNY   84  47  27 CALM      30.26F
6HR MIN TEMP:  59; 6HR MAX TEMP:  84;

WINDOW ROCK    MOSUNNY   81  49  32 VRB6      30.34F
6HR MIN TEMP:  48; 6HR MAX TEMP:  83;

SHOW LOW       MOSUNNY   81  46  30 S6        30.32F
$$

AZZ540-542>544-546-548-231900-
GREATER PHOENIX AREA

CITY           SKY/WX    TMP DP  RH WIND       PRES   REMARKS
PHOENIX        MOSUNNY  100  58  24 VRB7      29.91F
6HR MIN TEMP:  87; 6HR MAX TEMP: 100;

BUCKEYE        SUNNY     95  59  30 SW3       29.92F
GLENDALE       MOSUNNY   97  57  26 SW9       29.93F
LUKE AFB       SUNNY     97  59  28 S6        29.91F
6HR MIN TEMP:  82; 6HR MAX TEMP:  97; 6HR PCP: TRACE;

DEER VALLEY    SUNNY     96  57  27 MISG      29.94F
6HR MIN TEMP:  84; 6HR MAX TEMP:  96;

SCOTTSDALE     SUNNY     96  57  27 S8        29.96F
6HR MIN TEMP:  86; 6HR MAX TEMP:  97;

MESA-FALCON    MOSUNNY   97  61  30 SE3       29.95F
MESA-GATEWAY   MOSUNNY   95  59  30 E5        29.96F
CHANDLER       MOSUNNY   97  59  28 NE6       29.94S
$$

AZZ539-553-231900-
SOUTHWEST MARICOPA COUNTY AND PINAL COUNTY

CITY           SKY/WX    TMP DP  RH WIND       PRES   REMARKS
CASA GRANDE    SUNNY     96  59  29 W6        29.96F
6HR MIN TEMP:  80; 6HR MAX TEMP:  96;

GILA BEND      MOSUNNY   99  60  27 CALM      29.89F
6HR MIN TEMP:  84; 6HR MAX TEMP: 100;

$$

AZZ503-504-507>509-231900-
SOUTHEAST ARIZONA

CITY           SKY/WX    TMP DP  RH WIND       PRES   REMARKS
TUCSON         SUNNY     93  59  31 NW7       30.06F
DAVIS-MONTHAN  MOSUNNY   92  59  33 NW7       30.05F
6HR MIN TEMP:  76; 6HR MAX TEMP:  92;

RYAN FIELD     SUNNY     90  59  35 CALM      30.05F
NOGALES        PTSUNNY   87  61  41 SW6       30.14F
6HR MIN TEMP:  68; 6HR MAX TEMP:  90;

SIERRA VISTA   PTSUNNY   86  52  31 N7        30.20F
6HR MIN TEMP:  68; 6HR MAX TEMP:  89;

DOUGLAS        MOSUNNY   85  60  42 VRB5      30.15F
6HR MIN TEMP:  66; 6HR MAX TEMP:  86;

SAFFORD        SUNNY     93  53  25 VRB5      30.06F
6HR MIN TEMP:  71; 6HR MAX TEMP:  94;

$$

AZZ532-231900-
SOUTHWEST ARIZONA

CITY           SKY/WX    TMP DP  RH WIND       PRES   REMARKS
YUMA           SUNNY     99  64  31 S16       29.84F HX 101
6HR MIN TEMP:  87; 6HR MAX TEMP: 100;

$$

CAZ041-043-047-048-061-525>527-560>570-231900-
SOUTHERN CALIFORNIA

CITY           SKY/WX    TMP DP  RH WIND       PRES   REMARKS
DOWNTOWN L.A.  CLOUDY    74  62  66 W7        29.98S
6HR MIN TEMP:  69; 6HR MAX TEMP:  76;

L.A. AIRPORT   CLOUDY    69  63  81 SW9       30.00R
6HR MIN TEMP:  67; 6HR MAX TEMP:  70;

SAN DIEGO      CLOUDY    69  63  81 NW6       30.01R
6HR MIN TEMP:  68; 6HR MAX TEMP:  70; 6HR PCP: TRACE;

BURBANK        SUNNY     73  61  65 SE5       29.99S
6HR MIN TEMP:  64; 6HR MAX TEMP:  73;

ONTARIO        MOSUNNY   77  61  57 SW7       29.98F
6HR MIN TEMP:  64; 6HR MAX TEMP:  77;

RIVERSIDE      MOSUNNY   76  62  62 NW5       29.98F
6HR MIN TEMP:  64; 6HR MAX TEMP:  76;

PALM SPRINGS   SUNNY     98  54  22 CALM      29.87F
6HR MIN TEMP:  81; 6HR MAX TEMP:  98;

EL CENTRO NAS  MOSUNNY  100  56  23 E8        29.83F
6HR MIN TEMP:  78; 6HR MAX TEMP: 101;

IMPERIAL       SUNNY    100  66  32 MISG      29.81F HX 104
6HR MIN TEMP:  84; 6HR MAX TEMP: 100;

BLYTHE         MOSUNNY   99  67  35 S10       29.85F HX 103
6HR MIN TEMP:  87; 6HR MAX TEMP:  99;

NEEDLES        SUNNY    103  49  16 SE6       29.88F
6HR MIN TEMP:  85; 6HR MAX TEMP: 103;

$$

NVZ020-UTZ003-231900-
SOUTHERN NEVADA-UTAH

CITY           SKY/WX    TMP DP  RH WIND       PRES   REMARKS
LAS VEGAS      MOSUNNY   95  46  18 E6        29.98F
6HR MIN TEMP:  82; 6HR MAX TEMP:  96;

SALT LAKE CITY MOSUNNY   84  50  30 VRB5      30.15F
6HR MIN TEMP:  69; 6HR MAX TEMP:  84;

$$

NMZ009-TXZ055-231900-
NEW MEXICO-WEST TEXAS

CITY           SKY/WX    TMP DP  RH WIND       PRES   REMARKS
ALBUQUERQUE    PTSUNNY   78  57  48 VRB6      30.27F
6HR MIN TEMP:  65; 6HR MAX TEMP:  79;

EL PASO        PTSUNNY   86  64  47 VRB3      30.15F
6HR MIN TEMP:  74; 6HR MAX TEMP:  87;

$$


........................KEY........................
SKY/WX - SKY CONDITION/WEATHER
TMP    - TEMPERATURE IN FAHRENHEIT
DP     - DEW POINT IN FAHRENHEIT
RH     - RELATIVE HUMIDITY IN PERCENT
WIND   - DIRECTION AND SPEED IN MILES PER HOUR (MPH)
VRB    - VARIABLE WIND DIRECTION
PRES   - MEAN SEA LEVEL PRESSURE IN INCHES OF MERCURY
         F - FALLING PRESSURE   R - RISING PRESSURE
         S - STEADY PRESSURE
VSB    - VISIBILITY IN MILES
HX     - HEAT INDEX IN FAHRENHEIT
WCI    - WIND CHILL INDEX IN FAHRENHEIT
TC     - TEMPERATURE IN CELSIUS WHICH IS ALSO KNOWN AS
         TEMPERATURE IN CENTIGRADE
AFB    - AIR FORCE BASE
         LUKE AFB IS LUKE AIR FORCE BASE
         DAVIS-MONTHAN IS DAVIS-MONTHAN AIR FORCE BASE
NAS    - NAVAL AIR STATION
         EL CENTRO NAS IS EL CENTRO NAVAL AIR STATION
N/A    - NOT AVAILABLE





USA.gov is the U.S. government's official web portal to all federal, state and local government web resources and services.